Location: Peterborough
(44.3091°N, 78.3197°W)
Time: 16:15:22
(UTC-04:00)

Transit 2A - Pass Details

Date: 30 March 2023
Orbit: 591 x 964 km, 66.7° (Epoch: 04 June)

Event Time Altitude Azimuth Distance (km) Brightness Sun altitude
Rises 11:34:52 0° 332° (NNW) 3,611 9.0 43.6°
Reaches altitude 10° 11:38:19 10° 350° (N) 2,694 8.5 44.0°
Maximum altitude 11:42:36 18° 33° (NNE) 2,157 8.3 44.4°
Drops below altitude 10° 11:46:52 10° 75° (ENE) 2,695 9.1 44.9°
Sets 11:50:18 0° 94° (E) 3,613 9.8 45.2°
